Regional Weather Roundup
Issued by NWS

Home | Current Version | Previous Version | Graphics & Text | Print | Product List | Glossary On
Versions: 1 2 3 4 5 6 7 8 9 10 11 12 13 14 15 16 17 18 19 20 21 22 23 24 25 26 27 28 29 30 31 32 33 34 35 36 37 38 39 40 41 42 43 44 45 46 47 48 49 50
000
ASUS43 KIND 201009
RWRIN

WEATHER ROUNDUP FOR INDIANA
NATIONAL WEATHER SERVICE INDIANAPOLIS IN
500 AM EST SAT DEC 20 2014

NOTE: "FAIR" INDICATES FEW OR NO CLOUDS BELOW 12,000 FEET WITH NO
SIGNIFICANT WEATHER AND/OR OBSTRUCTIONS TO VISIBILITY.

* - STATION DOES NOT REPORT WEATHER SUCH AS PRECIPITATION OR FOG.

+ - STATION NOT QUALITY CONTROLLED BY THE NATIONAL WEATHER SERVICE.
    USE DATA WITH CAUTION...ESPECIALLY DEWPOINT AND RELATIVE
    HUMIDITY OBSERVATIONS.

INZ001>003-010>013-019-020-201100-
NORTHWEST INDIANA

CITY           SKY/WX    TMP DP  RH WIND       PRES   REMARKS
KNOX *+        CLOUDY    30  24  77 CALM      30.27S
LA PORTE +     CLOUDY    32  26  79 CALM      30.27F
MICHIGAN CITY+ CLOUDY    32  21  64 CALM      30.28F
MONTICELLO +   CLOUDY    29  28  96 CALM      30.27F
RENSSELAER +   CLOUDY    30  30 100 CALM      30.27F FOG
VALPARAISO     CLOUDY    30  23  75 CALM      30.27F

$$

LMZ046-743>745-201100-
SOUTHERN LAKE MICHIGAN

STATION/POSITION TIME  TEMP WIND        PRES
                       AIR  DIR/SP/G
                 (UTC) (F)  (DEG/KT/KT) (MB)

$$

INZ004-005-014>016-021>024-201100-
NORTH CENTRAL INDIANA

CITY           SKY/WX    TMP DP  RH WIND       PRES   REMARKS
GOSHEN         MOCLDY    26  23  88 CALM      30.26F FOG
LOGANSPORT +   CLOUDY    30  27  86 CALM      30.27F FOG
PERU/GRISSOM   CLOUDY    28  28 100 CALM      30.26F FOG
ROCHESTER +    CLOUDY    32  30  93 CALM      30.27F FOG
SOUTH BEND     CLOUDY    31  23  72 CALM      30.27
WARSAW +       CLOUDY    30  28  93 CALM      30.26F FOG

$$

INZ006>009-017-018-025>027-201100-
NORTHEAST INDIANA

CITY           SKY/WX    TMP DP  RH WIND       PRES   REMARKS
ANGOLA *+      CLOUDY    23  21  93 CALM      30.26S
AUBURN +       MOCLDY    23  21  93 CALM      30.27F FOG
FORT WAYNE     CLOUDY    26  23  88 CALM      30.27F
HUNTINGTON +   CLOUDY    28  26  94 CALM      30.26F

$$

INZ028-029-035-036-043>045-051>053-201100-
WEST CENTRAL INDIANA

CITY           SKY/WX    TMP DP  RH WIND       PRES   REMARKS
CRAWFORDSVL +  CLOUDY    27  25  93 CALM      30.26F FOG
GREENCASTLE +  PTCLDY    27  23  86 CALM      30.26F FOG
LAFAYETTE      CLOUDY    28  27  96 CALM      30.27F FOG
TERRE HAUTE    CLOUDY    29  26  89 CALM      30.28F

$$

INZ030>032-037>040-046>048-054>057-064-065-201100-
CENTRAL INDIANA

CITY           SKY/WX    TMP DP  RH WIND       PRES   REMARKS
CP ATTERBURY + LGT SNOW  30  28  93 MISG      30.27F
FRANKFORT +    MOCLDY    29  29 100 CALM      30.28S FOG
INDIANAPOLIS   CLOUDY    27  23  85 NW3       30.25F
-EAGLE CREEK   CLOUDY    29  24  82 CALM      30.26S
KOKOMO *+      CLOUDY    28  25  86 CALM      30.27S
MARION +       CLOUDY    28  28  96 CALM      30.26F FOG
MT COMFORT *+  CLOUDY    28  28 100 CALM      30.26F
SHELBYVILLE    CLOUDY    31  25  78 CALM      30.26S
ZIONSVILLE +   CLOUDY    29  26  89 CALM      30.26S FOG

$$

INZ033-034-041-042-049-050-058-059-201100-
EAST CENTRAL INDIANA

CITY           SKY/WX    TMP DP  RH WIND       PRES   REMARKS
MUNCIE         CLOUDY    29  26  89 CALM      30.25F FOG

$$

INZ060-061-067>069-081>083-085>088-201100-
SOUTHWEST INDIANA

CITY           SKY/WX    TMP DP  RH WIND       PRES   REMARKS
EVANSVILLE     CLOUDY    32  25  75 E6        30.28F WCI  26
HUNTINGBURG *+ MOCLDY    30  21  69 N5        30.28S WCI  25
WASHINGTON +   FLURRIES  29  26  88 CALM      30.28S

$$

INZ062-063-066-070>080-084-089>092-201100-
SOUTH CENTRAL AND SOUTHEAST INDIANA

CITY           SKY/WX    TMP DP  RH WIND       PRES   REMARKS
BLOOMINGTON    LGT SNOW  29  27  92 CALM      30.26S FOG

$$



USA.gov is the U.S. government's official web portal to all federal, state and local government web resources and services.